This is the latest recevied weather packets stored in our database for station/object KD7CTY. If no packets are shown the sender has not sent any weather packets the latest 10 day(s).
| Time | Temp. | Humidity | Pressure | Rain* | Wind** | Luminosity | Snow |
|---|---|---|---|---|---|---|---|
| 1777743830 | 17.78° C | 70% | 1015.6 hPa | 0 mm | - | 723 W/m² | - |
| 1777743527 | 17.22° C | 72% | 1015.9 hPa | 0 mm | - | 693 W/m² | - |
| 1777743224 | 17.22° C | 72% | 1015.7 hPa | 0 mm | - | 675 W/m² | - |
| 1777742922 | 16.67° C | 73% | 1015.6 hPa | 0 mm | - | 691 W/m² | - |
| 1777742619 | 16.67° C | 74% | 1015.9 hPa | 0 mm | - | 706 W/m² | - |
| 1777742314 | 16.67° C | 74% | 1016 hPa | 0 mm | - | 719 W/m² | - |
| 1777742011 | 16.67° C | 74% | 1015.9 hPa | 0 mm | - | 701 W/m² | - |
| 1777741709 | 16.11° C | 76% | 1016 hPa | 0 mm | - | 661 W/m² | - |
| 1777741405 | 15.56° C | 76% | 1016.1 hPa | 0 mm | - | 656 W/m² | - |
| 1777741101 | 15.56° C | 77% | 1016 hPa | 0 mm | - | 627 W/m² | - |
| 1777740798 | 15.56° C | 78% | 1015.9 hPa | 0 mm | - | 601 W/m² | - |
| 1777740495 | 15° C | 79% | 1016 hPa | 0 mm | - | 623 W/m² | - |
| 1777740192 | 15° C | 81% | 1015.9 hPa | 0 mm | - | 350 W/m² | - |
| 1777739888 | 15.56° C | 80% | 1016.2 hPa | 0 mm | - | 530 W/m² | - |
| 1777739584 | 15° C | 82% | 1016.3 hPa | 0 mm | - | 506 W/m² | - |
| 1777739282 | 14.44° C | 83% | 1015.9 hPa | 0 mm | - | 488 W/m² | - |
| 1777738979 | 14.44° C | 83% | 1016.1 hPa | 0 mm | - | 481 W/m² | - |
| 1777738675 | 13.89° C | 84% | 1016.1 hPa | 0 mm | - | 469 W/m² | - |
| 1777738372 | 13.33° C | 86% | 1016.1 hPa | 0 mm | - | 428 W/m² | - |
| 1777738070 | 13.33° C | 86% | 1016.2 hPa | 0 mm | - | 400 W/m² | - |
| 1777737769 | 13.33° C | 87% | 1016.2 hPa | 0 mm | - | 378 W/m² | - |
| 1777737467 | 12.78° C | 89% | 1016 hPa | 0 mm | - | 319 W/m² | - |
| 1777737165 | 12.78° C | 89% | 1016.1 hPa | 0 mm | - | 308 W/m² | - |
| 1777736859 | 12.22° C | 90% | 1015.9 hPa | 0 mm | - | 268 W/m² | - |
| 1777736247 | 11.67° C | 92% | 1016.2 hPa | 0 mm | - | 175 W/m² | - |
* Rain latest hour (hover to see other rain measurements)
** Current wind speed in m/s (hover to see current wind gust speed)